GEFSCGP_500_meanwind_102.txt.gz
Wind_Speed
6 6 6 8 9 9 10 12 13 13 14 14 13 14 15 17 19 22 24 25 27 26 25 22 21 22 21 23 24 25 26 26 27 28 29 30 30 31 32 32 32 33 33 34
6 6 6 8 9 9 9 10 11 12 12 13 13 14 16 18 20 22 24 24 24 22 21 19 19 20 20 21 23 25 26 27 28 29 30 31 32 33 34 34 34 34 34 35
5 6 7 9 10 10 10 10 10 11 11 11 12 14 15 17 18 18 19 19 18 18 16 15 15 17 19 21 22 23 25 27 28 30 32 33 33 34 34 34 35 35 35 35
5 6 7 9 9 10 10 11 11 11 11 11 12 13 13 14 15 14 13 14 14 13 13 13 15 17 19 21 22 23 25 27 28 30 32 33 34 34 35 35 35 36 36 36
4 6 6 8 9 9 10 11 12 12 12 12 12 12 11 13 13 10 10 11 10 10 12 14 15 17 18 20 22 24 25 27 28 30 31 32 33 34 35 35 36 36 36 36
5 6 6 7 7 8 9 10 11 10 11 10 10 10 10 11 9 8 8 7 8 9 11 12 14 16 18 20 22 24 26 28 29 30 31 32 33 34 35 36 36 37 37 37
6 5 6 7 7 7 8 8 8 9 9 8 8 8 9 8 7 6 6 6 7 9 11 13 15 17 19 21 24 26 27 29 30 31 32 33 34 34 35 36 36 37 37 38
5 5 6 6 7 7 7 6 8 9 8 7 7 8 7 7 7 7 7 8 9 10 12 14 16 18 21 23 25 27 29 30 31 32 33 34 34 35 36 36 36 37 37 37
6 5 6 6 7 6 5 6 7 7 6 6 6 6 7 7 8 8 9 9 11 12 14 16 19 21 23 25 27 29 30 32 33 34 34 34 35 36 36 37 37 37 37 37
6 6 5 6 6 6 6 7 7 6 5 5 5 6 6 7 8 9 10 11 13 14 17 19 22 24 26 28 30 31 33 34 34 35 35 35 36 37 37 37 37 37 36 36
5 5 5 5 5 6 5 5 5 4 5 5 5 6 7 8 9 10 12 13 15 17 19 21 24 26 28 30 32 33 34 36 36 37 37 37 37 38 37 37 36 36 36 35
5 5 4 4 4 5 5 5 5 5 6 6 7 7 8 9 11 13 14 15 17 19 21 24 26 28 30 32 33 35 36 37 38 38 38 38 39 38 38 37 36 36 36 36
5 5 4 4 4 5 5 5 6 6 7 7 8 9 10 12 13 15 16 17 19 21 24 26 28 30 32 34 36 37 38 38 39 39 39 40 40 39 39 38 38 37 37 37
6 6 5 6 6 6 5 6 7 8 8 9 9 10 12 13 15 16 17 19 21 23 25 27 30 33 35 36 38 39 39 39 40 40 40 41 40 40 40 39 39 38 38 37
7 7 7 7 7 7 7 7 8 10 10 11 11 12 14 15 16 18 19 21 23 25 27 30 32 35 36 38 39 39 40 40 40 41 42 41 41 41 41 40 40 39 38 37
8 8 8 8 8 8 8 8 9 11 12 12 13 14 16 17 18 19 21 22 25 27 29 32 34 36 37 39 40 40 41 41 42 42 42 42 42 42 41 40 39 39 37 36
9 9 9 9 9 8 7 7 9 10 12 13 15 16 17 18 19 20 22 24 26 28 30 33 35 36 38 39 40 41 41 42 42 43 43 42 42 42 42 41 40 39 37 36
9 10 10 9 9 8 8 8 9 11 12 14 15 16 17 18 19 21 23 25 27 29 31 33 35 37 39 40 41 41 42 42 43 43 43 43 43 42 42 41 40 39 38 36
10 10 10 9 8 8 9 10 11 12 12 14 15 16 17 19 20 22 24 26 28 30 32 34 36 38 39 40 42 42 42 43 44 44 44 43 43 42 41 40 40 39 37 36
10 10 10 9 9 8 8 10 11 12 12 14 15 16 18 19 21 22 25 27 28 30 33 35 37 38 39 41 42 43 43 44 44 44 44 44 43 41 40 40 39 38 37 36
12 12 11 11 10 10 10 11 12 13 14 14 16 17 19 20 22 24 25 27 29 31 33 35 37 39 40 41 42 43 43 44 44 44 44 43 42 41 40 39 39 38 36 35
14 14 13 13 12 12 13 13 14 15 15 16 17 19 20 22 23 24 26 28 30 32 34 36 38 39 40 42 43 44 44 44 44 44 44 43 42 41 40 39 39 37 36 34
14 14 14 13 14 14 14 15 16 16 17 18 19 20 22 23 24 25 27 28 30 32 34 36 38 39 40 42 43 44 44 44 44 44 44 43 42 41 40 39 38 37 35 33
15 15 15 15 14 15 16 17 17 18 18 19 20 21 22 23 24 25 27 29 31 33 35 37 38 39 41 43 44 44 44 44 45 44 43 42 41 41 40 39 38 36 34 33
16 17 17 16 15 16 17 18 18 19 19 20 21 22 23 24 25 26 27 29 31 33 36 38 39 40 42 43 43 44 45 44 44 44 43 42 41 41 39 38 37 35 34 32
18 19 19 18 17 18 18 19 19 20 21 22 22 23 24 25 26 27 28 30 32 34 36 38 39 41 42 43 44 44 45 45 44 43 42 42 41 40 39 37 36 35 33 31

GEFSCGP_500_meanwind_108.txt.gz
Wind_Speed
11 10 9 7 6 5 5 4 5 7 7 7 8 10 12 14 15 16 17 18 19 19 18 18 18 18 18 18 17 17 17 17 19 20 21 22 23 23 24 24 24 25 25 26
9 9 8 7 6 5 5 4 5 7 7 8 9 11 12 13 13 15 16 16 17 17 16 16 16 16 16 17 17 16 16 18 20 21 22 23 24 24 24 24 25 25 26 27
6 7 7 6 5 5 4 5 6 8 8 8 9 9 10 11 13 14 13 13 13 13 13 13 13 13 14 15 16 16 17 19 21 21 22 23 24 25 26 26 26 27 27 27
6 6 5 5 5 5 5 5 7 8 8 8 9 10 10 10 10 10 10 9 10 11 11 11 13 13 14 15 16 17 19 20 21 22 24 25 26 27 28 28 28 28 29 29
6 5 5 5 5 6 6 6 6 7 8 9 8 8 9 9 9 8 8 9 9 10 11 12 13 13 14 15 17 18 20 21 22 24 25 26 27 28 29 29 29 30 30 31
6 6 5 5 5 6 6 6 6 6 6 7 7 7 9 8 8 9 9 9 9 10 10 11 12 13 15 17 19 20 22 23 24 25 26 27 28 29 29 30 30 31 31 32
8 6 6 6 5 6 6 6 6 6 6 7 7 7 8 7 7 8 8 8 9 9 11 12 13 15 16 18 20 22 23 24 25 27 27 28 29 29 30 31 31 32 33 33
7 7 7 7 6 7 6 5 5 5 6 7 7 7 8 7 7 7 7 8 9 10 12 13 14 16 18 19 21 23 24 25 26 27 28 29 29 30 30 31 31 32 33 34
6 7 8 8 8 7 7 6 6 5 5 6 7 7 7 7 7 7 8 9 10 12 13 15 16 17 19 21 22 23 25 26 27 28 28 28 29 30 31 31 32 32 32 33
6 7 8 8 8 7 7 6 5 3 4 4 7 8 8 8 8 9 9 10 12 13 15 16 17 18 20 21 23 24 25 26 27 27 28 29 29 30 30 31 32 32 32 33
7 7 8 8 8 7 6 6 4 4 4 2 6 8 8 8 9 9 10 12 13 14 15 16 17 19 20 21 23 24 25 26 27 27 28 29 30 31 31 32 32 33 33 33
7 7 7 8 7 6 6 6 5 4 5 4 4 9 8 9 10 10 11 13 14 15 16 17 18 19 20 21 23 24 25 26 27 28 29 30 31 32 32 33 33 34 34 34
7 7 5 7 8 7 6 5 5 5 5 4 4 9 9 10 10 11 12 13 14 15 16 17 19 20 21 22 24 25 26 27 28 29 30 31 32 33 34 34 34 35 35 35
7 7 6 7 9 7 6 6 6 5 4 6 6 9 9 10 10 11 12 13 14 15 16 18 19 20 21 23 24 26 27 29 30 31 32 33 34 35 35 35 35 36 35 35
8 7 8 8 8 7 7 8 8 7 6 6 8 9 9 10 10 11 12 13 14 15 16 18 19 20 22 24 25 27 29 30 31 32 33 34 35 36 36 36 36 36 35 35
9 9 8 7 7 8 8 8 8 8 8 8 8 9 10 10 10 11 12 13 14 15 17 18 20 21 23 25 26 29 30 32 33 33 34 35 36 36 36 36 37 37 36 35
11 10 9 8 8 8 8 9 9 9 9 9 9 10 10 10 11 12 13 14 15 16 18 19 21 22 24 25 27 29 31 33 34 35 35 36 37 37 37 37 37 36 36 35
11 11 10 9 9 9 10 9 9 9 10 10 10 11 11 11 12 13 13 15 16 17 18 20 22 23 25 26 28 30 32 33 35 35 36 37 37 38 38 38 37 37 36 35
12 12 11 10 10 10 10 9 9 10 10 10 11 11 12 12 13 14 15 15 17 18 19 21 22 24 25 27 29 30 32 34 35 36 37 38 38 38 38 38 37 36 36 35
12 12 12 11 10 10 11 11 10 10 11 11 12 12 13 13 14 15 16 16 17 19 20 21 23 24 26 27 29 31 33 35 35 36 38 38 38 38 39 38 37 36 35 34
13 13 13 12 12 12 14 12 11 11 12 12 13 13 14 14 15 16 17 17 19 20 21 22 24 25 26 28 30 32 33 35 36 37 38 39 39 39 39 39 37 36 35 34
14 15 15 15 14 15 16 14 14 14 15 15 14 14 15 16 17 17 18 19 20 21 22 23 25 26 27 29 31 32 34 36 37 38 39 40 40 40 40 39 37 36 35 33
16 16 17 16 17 18 17 17 17 16 16 16 16 16 17 17 18 19 19 20 21 22 23 24 26 27 28 30 32 33 35 37 38 39 40 40 40 40 40 39 37 35 34 33
18 17 17 17 17 18 18 18 18 18 18 18 18 18 19 19 20 21 21 21 22 24 25 26 27 28 30 31 33 34 36 37 39 40 41 41 40 40 40 38 37 35 34 33
20 19 18 18 18 19 19 19 19 19 19 20 20 20 21 21 22 23 23 23 24 25 26 27 28 30 31 32 33 34 36 38 39 40 41 41 41 40 39 38 37 35 34 33
21 21 20 20 20 19 19 20 20 20 21 21 22 22 23 23 24 24 25 25 26 27 28 29 30 31 32 32 33 35 36 38 39 41 42 42 41 40 39 38 36 35 34 33

GEFSCGP_500_meanwind_114.txt.gz
Wind_Speed
8 9 9 9 11 11 11 11 11 9 8 9 9 8 7 7 9 12 13 14 15 15 16 16 15 15 16 17 17 17 17 17 16 16 17 18 19 20 20 21 21 21 22 23
9 12 11 11 11 9 9 12 11 10 8 8 8 8 7 5 9 11 11 12 11 11 12 13 14 15 15 14 14 14 15 15 15 16 18 19 21 22 22 22 22 23 23 23
9 10 11 11 10 10 11 11 9 9 9 8 7 6 7 5 7 6 7 9 10 10 11 12 13 13 12 11 12 13 14 14 16 17 18 20 21 22 22 22 23 23 23 24
8 10 10 10 10 10 10 9 8 9 12 11 10 7 5 6 7 6 6 6 6 7 8 9 9 9 10 11 12 13 14 15 17 18 20 21 21 22 23 23 24 24 24 25
8 11 10 10 10 9 9 9 8 11 14 13 10 8 6 5 5 5 4 5 6 6 7 7 9 10 11 12 12 13 15 17 18 19 21 22 23 24 24 24 24 25 25 25
7 8 9 9 9 7 8 9 11 13 14 10 7 9 9 6 4 3 3 5 5 6 7 8 9 11 12 13 13 15 16 18 19 20 22 23 24 24 24 25 25 25 26 26
10 10 9 9 8 8 9 10 13 15 10 5 6 7 7 8 7 7 7 7 7 8 9 10 10 11 13 14 15 17 18 19 21 22 23 24 25 25 25 25 26 27 27 28
12 12 8 9 10 10 9 9 12 13 12 6 6 9 8 8 8 8 9 9 9 9 10 10 11 13 14 15 16 18 19 21 22 23 23 24 25 25 26 27 27 28 29 30
12 12 10 9 10 10 8 7 9 11 11 5 4 8 6 7 7 7 8 9 10 11 11 12 13 14 15 17 18 19 20 21 22 23 24 25 26 27 27 28 28 29 30 31
11 12 10 9 9 8 7 6 5 7 11 10 7 7 10 10 9 9 10 11 12 12 13 14 14 16 17 18 19 20 21 22 23 24 25 26 27 27 27 28 29 30 31 31
11 11 11 10 8 6 7 6 7 6 6 9 9 11 12 12 11 10 11 12 12 13 13 13 14 16 17 18 19 20 21 22 23 24 26 27 28 28 28 29 29 30 31 32
12 12 12 12 11 9 7 7 6 6 3 3 9 12 12 12 11 11 12 13 13 14 14 14 15 16 18 19 20 21 21 23 24 25 26 27 28 29 29 30 30 31 32 33
12 13 13 13 13 8 4 4 5 5 3 3 9 14 12 12 12 12 13 14 14 14 14 15 16 17 18 19 20 21 22 23 25 26 27 28 29 30 31 32 33 33 34 35
12 13 14 15 9 3 3 5 6 7 5 6 9 14 14 10 11 12 13 14 13 13 14 15 16 17 19 19 20 21 22 24 26 27 28 29 31 32 32 34 34 35 36 36
13 12 12 12 9 4 5 7 8 9 9 9 10 12 14 13 13 14 14 14 14 14 14 15 17 18 19 20 20 22 23 25 27 28 29 31 32 33 34 35 36 36 37 37
13 13 12 11 9 9 7 7 9 10 11 10 11 14 17 17 15 16 15 15 15 15 15 16 17 18 19 20 21 23 24 25 27 28 30 31 32 34 35 36 37 37 37 37
14 13 13 11 11 10 9 8 9 10 11 11 13 16 17 17 16 16 16 16 16 16 16 17 18 19 20 21 22 24 25 26 28 29 31 32 33 35 36 38 38 38 38 38
14 14 13 13 13 12 11 9 10 11 12 13 14 16 17 17 17 16 16 16 16 17 17 18 19 20 21 22 23 24 25 27 29 30 32 33 34 36 37 38 39 39 39 39
15 14 14 15 15 14 14 13 11 11 12 14 15 16 17 17 17 16 15 15 16 17 18 19 20 21 22 23 24 26 27 29 30 32 33 35 36 37 38 39 39 39 40 39
15 15 15 16 16 16 17 14 13 12 14 14 15 16 16 17 17 17 16 16 17 18 19 20 21 22 23 24 25 27 28 29 31 33 34 36 37 38 39 40 40 40 40 40
15 15 15 15 16 17 17 16 14 14 16 16 17 17 17 18 19 19 19 18 19 19 20 21 22 23 24 25 27 28 29 30 32 33 35 37 38 38 39 40 40 41 41 41
17 17 16 17 18 19 19 20 18 17 15 17 18 19 19 20 19 19 20 20 20 21 22 22 23 24 25 27 28 29 30 32 33 34 36 37 38 39 40 40 41 41 41 40
18 19 19 21 22 20 20 20 20 18 17 18 20 21 21 21 21 20 20 21 21 22 23 23 24 25 26 28 29 30 31 32 33 35 36 37 39 40 40 41 41 41 41 40
20 23 23 22 22 22 21 19 19 21 20 21 21 22 22 22 22 22 21 22 22 23 24 24 25 27 28 29 30 32 32 34 35 36 38 38 39 41 41 41 41 42 41 40
22 22 22 24 23 21 22 19 19 20 20 21 21 22 23 22 23 24 24 24 24 25 25 26 27 28 30 31 32 33 33 35 36 38 39 39 40 41 41 41 42 42 41 40
24 25 26 25 23 23 24 21 22 22 21 22 23 23 24 24 25 25 25 25 25 26 27 28 29 30 31 33 34 34 35 36 38 39 39 39 40 41 42 42 42 41 41 40

GEFSCGP_500_meanwind_120.txt.gz
Wind_Speed
7 6 6 8 10 12 14 16 16 15 13 11 9 9 8 6 7 8 7 7 8 8 7 8 7 5 6 7 7 8 9 10 10 11 11 11 12 13 14 14 14 15 16 16
8 5 6 8 11 13 14 16 15 14 12 10 9 7 6 6 6 6 6 4 6 3 4 4 4 5 5 6 6 6 6 8 9 10 11 11 12 13 13 13 14 15 16 16
8 5 6 8 11 12 12 14 14 14 13 9 9 8 7 6 4 4 4 3 3 2 2 2 3 4 4 4 4 5 6 8 9 9 10 10 11 12 13 14 15 15 16 16
8 6 6 8 10 11 12 12 13 14 13 10 10 10 8 6 2 3 4 3 3 2 2 2 3 2 1 2 3 4 6 7 7 8 9 10 11 12 13 14 15 15 15 16
7 7 6 7 10 11 11 10 11 12 10 9 9 9 7 4 1 1 3 4 2 2 1 2 3 2 0 1 2 4 6 6 7 9 10 11 12 13 14 14 15 15 16 17
6 8 8 8 9 10 10 9 9 10 9 8 7 5 3 3 4 3 4 5 3 3 3 4 5 3 2 2 4 5 6 7 8 10 11 12 13 14 15 16 16 17 18 18
7 8 9 9 9 9 9 9 9 10 8 6 5 3 3 3 4 5 5 5 4 5 5 6 5 4 3 3 5 6 7 8 9 10 12 13 14 16 17 17 18 19 19 20
9 8 8 8 9 8 7 8 9 9 7 6 2 2 3 3 3 4 5 5 4 5 5 5 4 4 3 4 5 7 8 9 10 11 13 14 15 17 18 19 20 20 21 22
11 9 9 9 9 9 7 8 9 9 9 4 2 3 3 3 4 5 5 5 5 4 4 4 4 4 4 4 5 7 8 9 10 12 13 15 16 18 19 21 21 22 23 23
11 11 10 10 9 9 9 9 9 8 5 1 1 2 3 4 3 3 4 4 5 5 4 4 4 3 3 4 5 7 8 9 11 13 15 16 18 19 21 22 23 23 24 25
13 13 11 11 11 11 11 11 10 9 7 6 4 1 0 1 1 1 2 3 4 4 4 3 3 3 4 5 6 8 9 10 12 14 16 18 19 21 22 23 24 25 25 27
14 14 13 13 12 13 12 12 10 9 8 7 5 4 3 1 1 1 2 3 3 3 3 3 3 3 4 6 7 8 10 11 12 14 16 18 20 22 23 24 25 26 27 28
17 16 15 13 13 13 13 12 12 11 10 9 7 5 4 3 1 1 2 2 2 2 2 3 3 4 5 7 8 9 10 11 13 15 17 19 21 23 25 26 27 27 28 29
17 16 14 13 12 12 13 13 13 13 11 9 8 7 6 5 2 1 1 1 2 3 3 3 4 5 7 8 9 11 12 13 15 17 18 20 22 24 26 27 29 29 30 31
15 15 14 12 12 13 13 14 14 14 12 11 9 8 8 5 3 3 2 2 2 3 4 5 6 7 8 10 11 12 13 15 16 18 19 21 23 25 27 29 30 31 32 33
14 14 13 12 12 14 14 15 16 15 14 13 12 9 9 7 5 4 4 3 3 4 5 6 8 8 10 11 12 13 15 16 18 19 21 23 25 26 28 30 31 32 33 34
17 16 15 14 14 15 15 16 16 15 15 14 12 10 10 9 7 5 5 4 4 5 7 8 9 10 11 12 13 15 16 18 19 21 22 24 26 28 29 31 32 33 34 35
17 17 16 16 16 16 14 16 16 16 16 15 13 13 12 10 8 7 7 6 6 7 8 10 11 12 13 14 15 17 18 20 21 23 24 26 28 29 30 31 33 34 35 35
18 17 17 17 17 16 17 17 17 17 17 16 14 15 14 11 9 8 8 8 9 10 10 11 12 13 14 16 17 18 20 21 23 24 25 27 28 29 30 32 33 34 35 36
19 18 18 18 18 18 17 17 18 19 19 19 17 16 15 13 11 10 11 11 11 11 12 13 14 15 16 17 19 20 21 23 24 25 27 28 29 31 32 33 35 36 37 37
21 20 20 19 18 17 16 17 18 19 20 20 20 17 15 14 13 13 13 13 13 13 14 15 16 17 18 19 20 21 23 24 25 26 27 29 30 31 33 34 36 36 37 37
19 20 21 20 18 17 16 17 17 18 19 21 21 20 17 15 15 15 15 15 15 15 16 16 17 18 19 20 22 23 24 25 26 28 29 30 31 33 34 35 36 37 38 38
21 20 20 19 19 18 16 15 14 15 18 20 22 20 19 17 15 16 16 16 17 17 17 18 19 20 21 22 23 25 26 27 28 29 30 31 33 34 35 36 36 37 38 38
21 20 21 21 18 18 17 16 16 16 17 18 19 19 19 16 15 16 17 17 17 18 18 19 20 21 22 23 24 26 27 28 29 30 32 33 34 35 36 37 37 37 38 39
19 20 21 20 17 17 18 17 15 16 15 16 17 17 17 16 15 16 17 18 18 19 20 20 21 23 24 24 26 27 28 29 30 32 33 34 35 36 37 37 38 39 39 39
21 22 21 21 19 19 17 16 16 16 16 16 16 16 16 16 15 16 17 19 20 21 22 22 23 24 25 26 27 28 29 31 32 33 34 35 36 37 37 38 39 40 40 39

GEFSCGP_500_meanwind_126.txt.gz
Wind_Speed
12 11 11 11 11 11 11 10 10 11 13 13 12 13 12 11 9 7 7 5 4 6 8 9 9 9 7 7 6 6 6 5 5 5 5 6 7 7 8 9 11 12 13 13
12 11 11 11 11 11 11 11 10 11 13 13 13 12 11 11 8 6 3 3 3 5 7 8 9 9 7 6 5 4 4 3 3 4 5 6 6 7 8 9 10 11 11 11
14 12 11 11 11 11 10 10 11 12 13 13 12 10 10 9 5 4 2 1 3 5 7 7 6 6 6 5 5 5 4 2 2 3 4 4 5 6 8 9 10 10 10 12
13 11 11 11 11 11 10 10 11 12 12 12 11 11 9 8 5 3 1 2 5 5 5 5 5 5 5 6 6 5 4 2 2 2 3 3 5 6 7 9 10 10 11 12
12 11 10 11 11 11 10 10 11 11 11 11 10 10 8 7 4 3 2 4 5 4 5 4 4 5 5 5 6 5 3 1 0 1 2 3 4 6 7 9 10 11 12 13
11 10 10 10 11 11 10 10 10 10 10 9 9 9 7 4 2 2 3 4 5 5 4 5 5 5 5 5 6 5 4 2 1 1 1 3 4 5 7 9 10 12 12 13
11 10 10 11 12 11 11 11 10 10 9 8 8 7 4 3 1 2 3 4 4 5 5 5 5 6 6 6 6 5 4 2 1 1 2 3 4 6 7 9 11 12 13 14
11 10 11 12 13 12 11 11 11 11 9 7 6 5 3 2 1 3 3 4 5 5 5 5 6 6 6 5 5 5 3 2 1 1 2 3 4 6 8 9 11 13 14 15
12 11 12 13 13 12 11 11 11 11 10 8 6 5 3 2 2 3 3 4 6 6 5 6 5 5 5 4 4 3 3 2 1 1 2 3 5 7 9 11 12 14 16 17
15 14 14 14 13 12 12 11 12 12 12 9 6 5 4 4 3 3 4 5 5 5 5 6 6 6 6 4 4 4 3 2 1 2 3 4 6 8 10 12 14 16 17 19
18 16 15 15 14 14 13 12 12 12 12 11 8 7 7 6 6 5 6 6 6 6 6 7 7 6 6 5 4 4 3 3 3 4 5 6 7 10 12 14 16 18 19 21
19 17 16 15 15 15 14 14 14 14 13 12 10 8 9 8 7 7 7 8 8 7 7 7 7 7 7 6 6 5 4 5 5 5 6 7 9 12 14 17 18 20 21 23
18 18 16 16 16 16 16 15 15 15 15 13 12 10 10 10 9 8 9 9 10 9 9 9 9 9 8 8 7 7 6 7 7 8 9 10 12 14 16 18 20 21 23 24
18 17 17 16 16 17 17 17 17 16 15 14 12 11 11 10 10 10 10 10 10 10 10 11 10 10 9 9 9 8 8 8 9 10 11 13 14 16 18 20 21 23 24 25
18 17 16 16 17 18 18 18 17 16 15 15 13 12 12 12 11 11 11 11 11 11 12 12 12 11 11 10 10 10 10 10 11 12 13 15 16 18 19 21 23 24 25 26
18 18 18 17 18 18 18 18 17 16 15 14 13 13 13 13 12 12 12 13 13 12 13 13 13 12 12 12 12 12 12 12 13 14 15 16 18 19 21 22 24 25 26 27
18 18 20 19 19 19 18 17 17 16 15 14 13 13 14 13 13 13 14 15 14 14 14 14 13 13 13 13 13 13 13 14 15 16 17 18 19 21 22 24 25 26 28 29
19 18 18 19 20 20 15 16 17 17 16 15 14 14 15 15 15 15 15 15 16 15 15 15 15 15 15 15 15 14 14 15 16 17 18 19 21 22 24 25 26 28 29 30
19 20 20 19 19 17 16 17 18 18 17 17 16 15 15 16 17 17 17 17 17 17 17 16 16 16 16 16 16 16 17 17 18 19 20 21 22 24 25 27 28 29 30 31
19 20 20 19 19 17 15 17 19 19 19 18 17 17 18 18 18 17 18 18 18 18 18 17 17 17 18 18 18 18 18 18 19 20 21 22 24 26 27 28 29 31 32 33
19 20 20 19 18 15 15 16 18 19 18 19 19 20 20 20 19 19 19 18 19 19 19 18 18 18 19 19 19 19 19 20 21 22 23 24 26 27 29 30 31 32 33 34
20 20 19 18 17 15 16 17 18 18 18 19 19 20 21 21 22 21 21 20 19 20 20 19 19 20 20 20 20 20 20 22 23 24 25 26 27 29 30 32 33 33 34 35
20 20 20 20 18 17 17 17 18 19 19 20 20 20 21 22 22 23 23 22 21 20 21 20 20 20 20 20 21 22 23 23 24 25 26 27 29 30 32 33 34 35 35 36
20 20 20 20 18 18 19 18 18 19 20 20 20 20 20 21 22 24 24 24 23 22 22 22 21 21 21 22 23 24 25 25 26 26 27 29 31 32 34 35 36 36 36 37
20 20 20 20 20 20 19 19 20 19 20 21 21 21 21 21 22 23 23 23 23 23 22 22 22 22 23 23 23 25 26 27 27 28 30 31 33 34 35 36 37 37 38 39
21 21 21 21 21 20 20 20 20 20 20 21 22 22 22 22 22 24 25 25 22 21 22 22 23 23 23 24 24 26 27 28 29 31 31 33 34 35 36 37 38 38 39 40

GEFSCGP_500_meanwind_132.txt.gz
Wind_Speed
12 11 10 10 10 10 10 10 12 13 15 14 14 13 13 14 12 9 6 5 8 10 13 15 15 14 14 14 14 13 12 11 11 10 8 7 5 4 4 4 3 3 4 5
12 11 11 11 11 11 10 10 12 13 13 14 13 12 12 12 10 8 4 3 4 8 10 11 12 12 13 12 13 13 11 10 11 10 8 5 4 3 3 2 2 3 3 4
12 12 12 11 11 12 11 11 12 13 13 13 13 12 11 11 8 6 3 2 3 7 8 10 11 11 12 11 11 11 11 10 10 8 6 4 3 3 1 1 1 2 3 4
13 13 12 12 12 12 12 12 12 12 12 13 12 12 10 9 7 4 3 2 3 6 8 9 10 10 11 11 11 11 11 11 9 7 6 5 4 3 2 0 1 2 3 4
14 14 13 13 13 12 12 12 12 11 11 11 11 10 9 7 6 4 3 2 4 6 7 8 9 10 10 10 10 10 11 10 9 8 6 5 5 4 2 1 1 2 3 4
17 16 14 13 13 12 11 11 11 10 10 10 10 9 8 6 5 3 2 3 4 5 6 7 8 8 8 9 9 10 11 9 9 8 7 6 5 4 2 1 2 3 4 5
16 16 15 13 12 11 11 10 10 9 9 9 9 8 6 5 4 2 1 4 5 5 6 6 6 8 8 8 9 10 11 10 9 8 7 6 5 3 1 1 2 4 5 6
16 15 15 14 12 11 11 10 9 8 8 9 9 7 5 4 3 1 1 4 6 6 7 7 7 8 8 8 9 10 10 9 9 8 8 6 4 3 2 2 4 5 6 7
18 17 17 15 14 13 12 12 11 10 10 8 8 8 6 4 2 0 1 3 5 6 7 7 7 7 7 8 9 10 10 9 9 8 7 6 4 3 4 4 5 7 8 9
20 19 19 17 15 14 13 13 12 10 9 8 8 7 7 5 3 2 2 2 4 5 6 6 7 7 7 7 8 9 9 9 9 8 7 6 5 5 6 6 8 9 10 11
22 21 20 19 16 15 15 14 13 12 11 8 7 8 9 7 5 4 4 4 4 5 5 6 6 7 7 8 8 8 9 9 9 8 8 7 7 8 8 9 10 11 12 13
24 23 21 21 19 17 16 15 15 14 12 10 8 10 10 8 7 6 6 5 6 6 6 6 6 7 8 8 9 9 8 9 9 9 9 9 9 10 10 11 12 13 14 15
25 24 23 22 20 18 18 16 16 15 14 11 9 10 11 9 9 8 7 7 7 7 7 7 7 8 8 8 9 9 9 9 9 10 10 11 11 12 13 14 14 14 15 16
26 25 22 20 18 18 18 16 16 15 13 12 11 12 12 11 10 9 8 8 8 8 8 8 8 9 9 9 9 9 9 10 10 11 12 13 14 14 15 15 16 16 16 18
25 25 22 20 20 18 17 17 17 15 14 13 13 13 13 12 11 10 9 9 9 9 9 9 9 10 10 10 10 10 11 12 12 13 13 14 15 16 16 17 17 17 18 19
25 24 22 20 20 19 18 17 17 16 15 15 14 14 14 14 12 11 10 10 9 9 9 9 10 11 11 12 12 13 13 14 14 15 15 16 17 17 17 17 18 19 20 21
25 23 21 20 20 19 18 16 17 16 15 15 14 15 17 16 14 12 11 10 10 10 10 11 11 12 13 13 14 15 15 16 16 17 17 18 18 18 18 19 19 20 21 22
23 21 20 20 20 20 17 16 16 16 16 17 16 17 18 17 15 14 13 12 11 11 12 12 13 14 14 15 16 17 17 18 18 19 19 19 19 19 20 20 21 22 23 24
23 22 21 20 18 18 18 16 16 16 16 17 17 19 19 18 17 16 15 14 14 14 14 14 15 15 16 17 18 18 19 19 20 20 20 20 20 21 21 22 22 23 24 25
22 22 21 20 18 17 18 17 16 16 17 18 18 19 20 20 19 19 18 17 16 16 16 16 17 17 17 18 20 20 21 21 21 22 22 22 23 23 23 23 24 25 26 26
22 21 20 19 18 18 19 17 16 17 18 18 19 19 20 21 22 22 21 20 19 18 18 19 18 18 19 20 21 22 22 22 22 23 23 24 24 24 24 25 25 26 27 28
20 21 21 19 18 20 19 18 18 18 18 18 20 21 21 22 23 22 22 22 22 22 21 21 20 20 20 21 22 23 23 23 24 24 25 25 25 25 26 26 27 28 29 30
20 21 21 20 20 19 19 20 19 19 19 19 20 21 22 23 24 24 24 24 25 25 24 23 23 23 23 23 24 24 25 25 25 25 25 26 26 27 27 28 29 30 31 32
20 20 20 20 20 20 20 20 20 20 20 20 21 21 22 23 24 24 25 26 26 26 25 26 26 26 26 26 26 26 26 26 26 27 27 27 27 28 29 30 31 32 33 33
22 21 20 21 22 22 22 22 21 21 21 21 22 22 22 22 24 25 26 27 26 26 26 27 28 28 28 28 28 27 27 28 27 28 28 28 29 29 31 32 32 33 34 35
22 22 21 22 22 23 23 22 22 22 22 22 23 23 22 23 23 24 25 26 27 27 28 29 29 30 30 30 30 29 29 28 29 29 29 29 30 31 32 33 34 35 37 38

GEFSCGP_500_meanwind_138.txt.gz
Wind_Speed
12 11 8 6 7 9 11 10 11 15 15 16 17 18 17 16 16 17 17 15 12 11 9 12 14 15 15 16 16 16 15 14 13 12 11 9 7 6 5 4 4 3 3 3
12 10 8 8 10 11 10 11 13 15 16 16 16 15 15 15 16 16 15 13 10 8 8 10 11 12 13 14 14 14 14 13 12 11 9 9 8 6 5 3 2 2 2 2
12 9 9 10 11 11 11 12 14 15 15 15 16 15 14 15 15 15 13 11 10 7 6 6 8 9 12 13 13 13 12 12 12 11 9 9 7 6 5 3 2 1 1 2
13 12 13 14 13 12 13 13 14 14 14 14 13 15 13 14 14 14 12 10 8 5 5 6 7 9 10 10 11 12 12 12 12 10 9 8 7 6 4 3 2 1 0 1
13 13 15 16 15 14 15 15 14 13 13 14 14 15 13 12 14 12 12 9 6 4 5 6 7 9 9 10 11 12 12 11 10 10 9 8 7 6 4 4 2 1 1 1
17 16 16 16 16 16 15 15 14 13 14 16 11 12 12 12 13 12 10 8 5 4 5 5 6 8 10 10 11 11 10 10 10 10 9 8 7 6 5 4 3 1 0 1
18 18 18 18 17 15 13 13 14 15 14 11 7 8 10 11 12 11 9 6 3 3 4 5 6 7 9 10 10 10 10 10 9 9 9 8 7 6 5 4 3 2 2 2
17 18 18 19 18 17 14 13 14 15 13 12 9 9 9 10 9 9 7 5 2 2 4 5 6 7 8 8 9 9 10 10 9 10 9 8 7 7 5 4 3 3 3 4
19 20 19 20 19 18 17 15 14 15 12 12 12 12 11 8 7 7 6 4 3 3 5 5 6 7 8 8 8 8 9 9 9 9 9 8 7 6 5 5 4 4 5 6
22 24 21 21 21 18 17 15 15 15 15 13 13 14 12 7 7 7 6 4 4 4 5 6 6 7 7 8 7 8 8 9 8 9 9 8 7 6 6 6 6 6 7 8
25 26 24 22 22 18 18 17 17 16 15 15 16 14 11 9 8 8 6 5 4 5 5 6 7 8 8 8 7 7 8 8 8 8 8 8 8 8 7 7 8 8 9 11
28 28 28 26 22 20 20 19 19 18 16 14 15 15 10 9 8 8 7 7 6 6 6 6 7 8 8 8 8 8 8 8 8 8 8 8 8 8 8 9 9 10 12 13
29 29 29 28 25 22 22 20 18 18 16 14 14 18 15 12 10 10 9 9 8 8 8 7 7 8 8 9 9 9 9 9 9 9 9 9 9 10 10 10 11 12 14 14
30 30 30 27 27 25 23 22 20 18 17 14 14 18 16 13 11 11 11 11 10 10 9 9 9 9 9 10 10 11 11 11 10 10 10 10 10 10 11 12 13 14 15 15
30 30 29 28 26 25 21 19 19 18 16 16 16 19 17 14 11 12 13 12 11 11 10 11 11 10 11 11 11 11 12 12 12 12 11 11 11 12 12 13 14 15 16 16
30 28 27 29 26 24 21 18 16 15 15 16 16 17 18 16 13 14 13 13 12 12 12 12 12 12 12 12 12 12 12 13 13 13 13 12 13 13 14 15 16 17 17 18
26 28 29 27 24 25 24 19 15 15 16 16 17 18 18 16 15 15 15 15 14 14 13 13 13 13 13 13 13 13 13 13 14 14 14 14 14 15 16 17 18 18 19 20
26 26 26 25 26 26 21 17 17 19 18 19 19 20 20 19 17 16 17 17 16 15 14 13 13 13 13 13 14 14 14 15 15 16 16 16 16 17 18 19 19 20 21 22
26 27 27 26 26 25 21 20 20 20 19 19 19 20 21 21 19 18 18 17 17 16 15 14 14 14 14 14 14 15 15 16 17 17 17 18 18 18 19 20 21 22 23 23
22 24 27 28 27 25 21 20 21 19 19 20 22 22 22 21 19 19 18 17 17 16 16 16 16 15 15 15 15 16 16 17 18 18 19 19 19 20 21 22 23 24 24 25
24 26 28 28 28 25 24 22 21 20 20 21 21 21 22 22 20 20 19 17 18 18 18 18 17 17 17 17 17 18 18 19 19 20 20 21 21 22 23 24 25 25 25 26
24 25 26 28 29 27 26 24 22 19 19 21 22 22 21 21 21 21 21 20 19 19 19 20 20 19 19 20 20 20 20 20 21 21 21 22 23 24 24 25 26 27 27 28
21 22 23 26 28 28 26 24 22 19 19 20 22 22 22 21 22 22 22 21 21 22 22 22 22 22 22 22 22 21 21 21 22 23 24 24 25 26 26 27 28 28 28 29
24 24 24 26 26 28 27 26 24 20 21 22 22 22 22 22 22 22 22 22 23 23 24 24 24 24 24 25 25 24 23 24 24 25 26 27 27 28 28 29 29 29 30 31
22 23 24 26 26 22 22 22 21 21 21 21 22 22 23 22 22 22 22 22 23 24 24 26 26 26 26 27 26 26 26 26 27 27 28 28 29 30 30 30 31 31 32 32
21 22 23 23 23 22 22 20 18 18 18 20 22 23 23 23 23 23 23 23 24 24 24 25 26 27 27 27 28 29 29 29 29 30 30 30 31 32 32 32 32 33 34 34

GEFSCGP_500_meanwind_144.txt.gz
Wind_Speed
16 14 13 12 11 11 10 9 8 9 12 13 13 13 14 14 15 15 16 16 15 13 10 8 7 10 11 13 15 16 15 14 12 11 11 10 10 9 8 7 6 5 4 4
15 14 14 14 12 11 11 10 9 11 13 14 14 14 15 15 16 15 15 14 14 12 9 8 7 8 10 14 15 14 15 14 13 11 11 11 11 10 9 8 6 6 5 4
14 14 17 16 14 11 10 9 10 13 15 16 17 16 16 16 16 15 14 13 11 9 8 6 5 6 8 13 14 14 14 14 13 13 13 13 11 10 9 8 7 6 5 5
15 17 17 16 15 13 11 9 12 15 17 18 19 19 15 15 15 14 12 10 8 7 6 4 4 6 8 13 14 15 14 14 14 14 14 13 12 11 10 8 7 6 6 6
15 18 18 17 14 13 12 12 14 17 18 19 19 19 15 14 14 12 10 8 7 5 4 3 4 6 9 12 14 15 14 14 15 15 14 14 13 12 10 9 8 7 7 6
16 19 20 18 17 15 14 14 17 18 19 19 18 19 14 13 12 10 7 6 5 3 2 4 5 7 9 12 13 14 14 14 15 15 15 14 13 12 10 9 8 7 7 7
17 19 19 20 20 18 16 17 18 18 18 18 18 17 13 12 9 7 5 4 4 2 2 5 7 7 10 12 13 14 14 15 15 15 14 14 13 12 10 9 9 8 8 7
18 19 19 20 20 18 18 18 19 19 18 18 17 16 10 9 8 6 4 3 3 3 4 5 6 8 10 12 13 14 14 15 15 15 15 14 13 12 10 10 9 8 8 7
19 19 20 21 21 20 20 20 20 20 20 19 17 14 10 8 8 6 3 2 3 4 4 5 8 9 10 12 14 14 14 14 15 15 15 14 13 12 11 10 9 8 8 7
19 20 22 23 24 23 23 23 23 22 21 20 17 12 10 8 6 4 3 2 4 5 5 5 8 9 10 11 13 14 14 14 15 14 14 13 12 12 11 10 9 9 8 7
23 23 22 25 25 25 26 25 24 24 23 21 18 13 10 8 6 5 4 4 5 5 5 5 7 9 10 11 12 13 13 13 13 13 13 12 12 12 11 11 10 9 9 7
26 26 25 26 27 26 26 25 24 25 25 22 20 14 11 8 7 6 6 6 6 7 7 7 7 9 11 12 11 11 11 11 12 12 13 13 12 12 12 11 10 10 10 9
29 29 28 28 29 28 27 27 27 26 25 23 21 15 12 11 10 9 8 7 7 8 8 8 8 8 10 11 11 11 11 11 11 12 13 13 12 12 12 11 11 10 10 10
30 30 29 28 28 28 28 28 28 26 26 24 20 16 14 13 12 10 9 9 9 9 9 9 9 9 10 10 10 10 11 11 11 11 12 12 12 12 12 12 12 11 12 12
30 30 30 29 28 29 28 28 29 28 26 23 20 16 15 15 14 12 11 11 10 10 9 10 10 10 11 10 10 10 11 11 12 12 12 12 13 13 13 13 13 13 13 13
28 27 27 27 28 29 28 27 28 27 25 24 22 17 15 15 13 12 12 12 12 11 11 11 11 10 11 12 12 12 12 12 13 14 14 14 14 14 14 15 15 15 15 15
27 27 28 28 29 28 28 26 27 26 24 23 22 17 16 14 12 11 11 12 13 12 10 10 10 11 11 12 12 13 13 13 14 15 15 15 15 15 16 16 16 17 17 17
25 27 28 27 27 28 25 25 25 25 24 23 21 20 17 14 12 12 12 12 12 12 11 11 11 12 12 12 12 13 13 14 14 15 16 16 16 17 17 18 18 19 18 18
23 24 26 26 27 26 24 24 24 24 22 21 21 20 18 15 14 11 11 11 12 13 13 13 13 13 13 13 13 14 14 14 15 16 16 17 18 18 18 19 19 20 20 20
20 21 23 24 24 24 21 20 22 23 22 21 20 18 18 18 16 12 12 12 13 14 14 15 15 15 15 15 15 15 15 15 16 16 17 18 19 20 20 21 21 21 22 22
18 19 21 23 23 22 20 19 20 21 20 20 19 18 18 19 17 15 14 13 15 15 15 16 16 16 16 16 16 16 17 17 18 19 19 20 21 21 21 21 22 22 22 23
17 18 19 20 21 20 20 20 21 19 20 20 20 20 19 19 18 16 15 15 16 16 16 16 17 17 18 18 17 17 17 18 20 20 21 21 22 23 23 23 24 24 24 25
17 18 17 18 18 17 19 20 20 21 20 20 20 20 20 19 18 17 16 16 17 17 18 18 18 19 19 19 19 19 19 20 21 22 23 23 24 24 25 26 27 27 27 27
17 17 17 16 17 17 18 19 19 20 21 21 21 20 20 20 19 18 18 18 18 19 19 20 20 21 21 20 20 21 21 22 22 23 24 25 26 27 27 27 28 28 28 29
16 17 16 16 16 16 17 18 19 19 20 23 23 22 22 20 18 18 19 18 19 19 19 20 21 21 22 22 22 23 24 24 24 25 26 26 28 29 30 30 30 29 29 30
15 16 16 15 14 14 15 16 18 19 19 19 19 19 18 19 19 19 19 18 18 19 19 20 21 21 22 23 23 24 25 25 25 26 26 27 27 29 30 31 31 32 32 33

GEFSCGP_500_meanwind_150.txt.gz
Wind_Speed
20 18 16 17 17 17 17 16 16 15 14 13 11 11 12 12 13 14 15 14 12 11 12 12 11 11 11 12 14 16 19 20 19 18 17 16 15 14 12 12 10 9 8 6
19 17 18 19 18 18 18 17 16 16 16 15 13 12 12 13 13 14 15 14 12 11 11 11 11 11 11 13 13 16 17 20 20 19 18 17 16 14 13 12 11 9 8 7
18 18 20 19 19 19 19 18 17 17 18 17 15 13 12 13 14 15 15 15 13 12 10 10 9 9 10 13 14 15 17 20 20 20 20 18 17 15 14 12 11 9 8 7
19 20 21 20 19 20 20 19 19 19 18 17 16 14 12 12 13 15 16 15 13 13 12 10 9 9 10 12 14 17 19 20 21 21 21 20 18 16 15 14 12 10 9 8
20 21 21 21 20 20 20 21 20 20 20 19 17 16 11 12 13 15 15 15 14 13 12 11 10 9 10 11 12 15 18 20 22 22 21 20 18 17 16 14 13 11 9 9
21 22 22 21 21 21 21 22 22 21 21 19 17 17 12 12 12 13 14 14 13 12 11 10 9 9 10 11 13 15 17 19 21 21 21 20 19 18 16 14 13 12 10 10
21 22 22 22 22 22 22 22 22 22 21 20 18 17 13 12 13 13 12 12 12 11 10 9 8 9 9 11 14 17 18 20 21 21 21 20 19 18 16 14 13 12 11 10
21 21 21 21 22 22 23 22 23 23 22 19 17 16 12 12 12 12 12 11 11 10 9 8 7 7 9 11 15 17 18 20 21 22 22 20 19 17 16 15 13 12 12 11
19 20 21 21 22 23 23 24 24 24 22 20 17 14 11 12 12 12 12 11 10 10 8 8 8 8 9 11 15 16 18 20 21 22 21 20 18 17 16 15 14 13 12 11
19 20 21 21 22 23 24 23 23 23 23 21 16 13 11 11 12 12 11 10 9 8 7 8 8 8 9 12 15 17 17 19 21 21 20 20 18 17 16 15 15 14 13 12
20 20 21 22 23 23 23 24 24 24 23 21 18 13 12 12 12 12 11 10 9 8 7 7 8 8 10 12 14 16 17 19 19 20 20 19 19 18 16 15 15 14 13 12
21 22 22 23 24 24 26 25 25 24 22 22 19 13 13 13 12 11 11 10 9 9 8 9 9 9 10 12 13 15 16 17 18 19 19 19 19 18 17 15 15 14 13 13
24 24 24 25 25 26 27 27 26 26 25 23 20 15 14 12 11 11 11 11 10 10 10 10 10 10 11 12 14 15 15 17 18 18 19 19 18 18 17 16 15 15 14 14
26 27 26 26 26 27 27 27 26 26 26 24 21 17 15 14 13 12 12 12 11 11 12 12 12 12 13 13 14 15 15 16 17 18 19 19 19 18 17 16 16 15 15 15
27 27 27 26 26 26 26 26 26 26 26 24 21 18 16 16 15 15 14 13 12 13 13 14 14 14 14 14 15 15 15 15 15 16 18 19 20 19 18 17 17 17 16 17
28 28 28 27 27 26 26 25 26 26 25 23 21 18 17 17 16 16 16 15 14 14 15 16 16 15 16 16 16 16 15 15 16 17 17 18 18 19 19 18 18 18 17 17
27 27 27 27 27 27 26 24 26 25 24 23 21 19 19 18 18 17 17 16 16 16 16 16 17 17 17 17 17 17 16 16 16 17 17 17 17 17 17 17 17 17 18 18
25 26 26 26 26 27 24 23 24 24 23 23 21 20 19 19 18 18 17 17 17 18 18 19 18 18 19 18 18 18 17 17 17 17 17 17 17 17 17 18 18 18 19 19
23 23 24 24 25 26 24 23 23 23 23 22 21 20 20 19 19 18 17 18 18 18 20 20 20 19 20 19 18 18 17 17 18 18 19 19 19 19 19 20 20 20 21 21
23 23 23 23 23 24 21 21 22 22 21 21 20 20 20 20 19 18 18 18 18 18 20 20 20 20 20 19 19 18 18 18 18 19 19 20 20 21 21 21 21 22 22 23
22 22 22 22 22 21 20 20 20 21 19 19 19 20 20 20 19 20 19 19 19 19 20 20 20 20 20 19 19 19 19 19 20 21 21 21 22 22 23 23 23 23 24 24
20 20 20 20 20 19 19 20 20 19 19 18 18 19 20 20 20 21 20 20 20 20 20 20 21 21 21 20 20 20 20 21 21 21 22 22 23 24 24 24 25 25 25 26
20 19 19 19 19 18 18 18 18 18 18 18 19 19 20 20 21 21 21 22 22 21 21 22 22 22 21 21 21 21 22 23 22 22 23 23 24 25 26 26 27 26 27 28
18 19 19 18 17 18 18 18 16 17 18 18 19 19 19 20 21 22 23 23 23 22 21 22 22 22 22 22 22 22 23 24 25 24 24 25 26 25 26 27 27 27 28 29
17 18 18 18 17 16 17 17 17 18 18 18 18 19 20 20 20 21 22 22 23 23 22 22 22 22 23 23 23 23 24 24 25 24 24 25 25 26 26 27 29 30 30 31
17 17 16 16 15 15 15 16 16 17 17 18 18 19 20 21 21 22 23 23 23 24 23 23 23 23 23 24 24 24 24 25 26 26 26 27 28 28 29 29 30 31 31 31

GEFSCGP_500_meanwind_156.txt.gz
Wind_Speed
21 21 19 19 19 18 17 16 16 17 16 14 13 12 12 12 12 12 12 12 12 12 12 12 12 13 13 14 15 16 17 18 19 20 20 20 18 17 15 14 13 12 11 10
21 20 20 21 20 18 16 16 16 16 16 14 14 13 13 13 13 13 13 12 13 13 12 12 12 12 12 14 15 16 17 18 19 20 20 21 20 18 17 15 14 13 11 11
21 21 21 20 19 17 16 16 16 16 15 14 13 13 14 14 13 13 14 14 13 13 12 12 12 11 11 12 13 16 17 18 20 21 22 21 20 19 17 16 15 14 12 11
22 22 21 20 19 17 16 17 17 16 14 14 13 11 14 14 14 13 14 14 14 13 12 12 11 11 11 11 13 15 16 18 19 21 22 22 21 19 18 17 16 15 13 12
22 22 21 20 18 18 18 18 17 16 15 14 13 11 12 13 13 14 14 14 13 12 12 12 11 11 11 12 13 15 15 17 19 20 22 22 22 21 20 18 17 15 13 12
23 22 21 20 20 19 18 17 16 15 14 14 14 12 10 11 12 13 14 14 13 11 11 11 11 11 11 11 12 15 15 16 18 20 23 23 23 21 20 18 17 16 15 13
22 21 21 20 20 19 18 16 14 14 14 14 15 12 11 11 12 13 13 13 12 11 10 10 11 11 11 11 11 13 14 16 18 20 22 23 23 21 20 18 17 17 16 14
21 21 21 20 20 19 18 17 16 15 14 14 16 13 11 12 12 12 12 12 11 11 10 10 11 12 12 12 12 12 15 17 18 20 22 22 23 22 21 19 18 18 17 15
20 21 21 21 20 20 19 19 18 17 16 15 14 13 12 13 13 12 12 11 11 10 10 10 10 10 11 12 12 13 15 17 19 20 22 23 23 22 21 20 19 18 17 15
21 21 21 20 20 21 21 19 19 18 16 15 14 13 12 12 12 13 13 12 11 10 10 9 8 8 9 11 12 13 13 15 18 21 22 23 23 22 21 21 20 19 16 15
21 20 21 21 21 20 21 21 20 19 18 15 14 14 15 14 13 13 12 12 11 10 9 9 9 9 10 11 12 12 13 15 17 20 22 23 23 23 22 21 20 18 17 15
21 20 20 21 22 22 22 21 21 20 19 17 15 15 16 15 14 13 12 11 11 10 9 9 9 9 10 11 12 13 14 14 17 19 22 23 22 21 21 20 19 18 17 16
22 22 21 20 22 23 23 22 22 22 21 19 17 17 17 16 15 14 12 11 11 10 10 10 10 9 9 10 12 13 15 15 16 18 20 22 21 21 21 20 18 17 16 15
23 23 22 20 20 22 23 22 23 23 22 20 19 18 19 17 16 15 13 12 11 11 10 10 10 10 10 11 12 13 14 15 17 18 19 20 21 21 20 19 18 18 17 16
24 23 23 23 22 22 22 22 23 23 22 21 20 19 19 19 18 16 15 13 13 12 11 11 11 10 10 11 12 13 13 14 15 16 18 20 21 20 20 19 19 18 18 17
24 24 23 22 21 22 22 22 22 22 22 21 20 20 20 20 19 18 16 15 14 13 13 12 12 12 12 12 13 13 14 14 15 16 17 18 18 18 19 19 19 19 18 19
25 24 23 21 21 22 23 22 22 23 22 22 21 21 21 20 19 18 17 16 15 14 14 14 14 14 14 14 14 14 14 15 16 16 16 16 17 18 18 20 20 20 19 19
25 24 23 23 22 23 21 21 22 23 22 22 23 22 22 20 19 18 18 18 17 16 16 16 16 15 15 15 15 15 15 16 16 16 16 17 17 18 18 19 20 21 21 21
24 23 23 22 22 22 22 21 21 22 23 23 23 22 22 20 19 19 20 19 18 17 17 18 18 17 17 17 16 16 16 16 16 17 17 18 18 18 18 19 20 21 22 22
24 23 22 21 21 21 22 21 21 22 23 23 22 22 22 21 21 21 21 20 19 18 18 18 19 19 18 18 18 18 18 17 17 18 18 18 18 18 19 19 20 20 21 22
23 22 22 22 22 22 22 20 21 22 22 21 21 21 22 23 22 22 22 21 20 18 18 18 18 19 19 18 18 18 18 18 19 19 19 18 19 19 19 19 20 21 23 24
23 23 23 23 23 23 21 21 22 22 21 21 21 22 22 23 23 23 22 21 21 19 18 18 18 18 19 20 19 18 19 19 19 19 19 19 20 20 20 21 22 23 24 24
24 23 23 23 23 23 22 22 22 21 21 22 22 22 24 24 24 23 23 23 21 20 19 18 19 20 20 20 20 20 20 20 20 20 20 20 20 21 21 22 24 24 25 26
23 23 23 23 22 22 22 22 21 21 21 21 21 23 24 25 25 24 24 23 23 22 21 20 21 21 21 22 22 22 21 21 21 21 21 21 21 22 22 23 23 25 25 26
22 22 23 23 23 23 22 21 21 20 20 20 22 24 25 25 25 24 24 23 23 22 22 22 22 23 23 23 23 23 23 22 22 23 23 23 23 23 24 24 24 25 25 27
21 21 21 22 22 22 21 20 20 20 20 20 21 22 23 24 24 24 24 24 23 23 23 23 23 23 23 23 23 23 23 23 23 24 24 24 24 24 25 26 26 27 27 28

GEFSCGP_500_meanwind_162.txt.gz
Wind_Speed
23 23 20 17 15 15 13 13 13 11 13 16 16 14 14 16 17 16 16 16 16 14 14 14 14 14 14 15 15 16 16 16 17 17 16 16 18 17 16 15 13 12 11 10
24 21 18 18 17 18 17 16 14 13 16 17 17 15 16 18 17 17 17 16 15 14 14 13 13 14 13 14 15 15 14 14 15 16 16 17 18 18 17 15 14 12 11 10
22 18 19 19 19 19 18 17 17 18 17 18 17 15 16 17 16 15 16 16 16 15 13 12 13 13 14 14 14 15 14 13 14 15 15 16 17 18 17 16 15 14 12 11
22 20 20 20 20 20 19 18 17 17 16 16 15 15 15 16 16 14 14 14 15 14 13 12 13 13 13 13 14 14 13 13 15 15 14 15 16 17 17 17 16 15 14 12
21 21 22 21 20 19 19 17 17 17 18 18 17 16 16 17 16 15 14 14 15 14 14 13 13 12 12 13 13 13 13 13 14 15 15 15 15 16 18 18 17 15 14 13
21 21 22 21 20 19 19 18 17 18 17 19 18 17 15 17 16 16 14 15 15 14 14 14 14 12 11 11 11 11 12 13 15 15 15 15 16 16 17 18 18 16 15 14
22 22 21 20 20 20 20 19 17 17 17 17 15 16 16 18 17 16 15 16 16 15 15 14 13 12 11 10 9 10 11 13 14 15 15 15 16 17 18 18 18 17 16 15
20 21 21 21 21 20 20 20 19 17 16 15 13 16 16 16 17 17 17 18 17 16 15 13 12 12 11 10 10 10 12 14 14 15 15 17 18 18 18 18 18 17 17 15
19 19 20 20 20 21 20 21 20 18 16 16 14 14 16 15 16 17 18 18 17 16 15 13 12 12 12 11 11 11 12 13 15 15 16 17 18 18 18 18 18 16 17 16
17 17 19 21 21 22 21 20 20 22 20 17 14 14 14 13 16 17 18 17 17 16 14 13 12 11 11 11 11 12 12 11 12 14 15 16 17 17 18 18 18 17 17 16
21 19 19 21 22 20 22 22 22 21 21 18 16 15 15 16 18 18 19 18 17 16 15 13 13 12 12 11 11 11 11 12 12 13 14 15 15 16 17 18 18 18 17 17
25 22 21 21 21 20 22 23 24 25 23 23 21 18 19 18 20 20 18 18 18 16 15 14 13 12 12 11 12 11 12 12 13 13 14 15 15 16 17 19 18 19 18 17
28 27 24 22 21 22 23 23 24 25 24 23 22 21 19 19 21 20 18 19 18 17 16 14 13 13 12 12 12 12 11 12 14 14 14 15 16 16 17 18 19 19 18 18
29 29 26 23 23 23 23 24 25 24 24 23 22 24 23 22 21 19 18 18 17 17 16 15 14 14 13 13 12 12 12 12 13 14 14 15 15 16 17 18 17 18 18 18
29 29 29 27 25 24 24 23 24 25 24 24 23 24 26 25 23 22 20 19 18 18 17 16 15 14 14 13 13 12 12 13 13 14 14 15 15 16 18 17 17 18 18 18
31 29 29 28 25 23 23 22 22 22 24 25 25 26 27 26 24 23 22 21 20 18 17 16 15 15 14 13 13 12 13 13 13 14 14 15 15 16 17 18 17 17 17 17
30 29 29 27 25 23 23 22 23 25 26 25 26 26 26 24 22 21 21 21 20 19 18 17 16 15 15 14 13 13 14 14 14 14 15 16 17 17 17 18 18 18 17 17
30 29 29 28 28 26 24 23 23 24 24 24 26 27 27 25 22 21 21 21 20 19 18 17 16 14 14 14 14 14 14 14 14 14 15 16 17 17 17 17 17 18 18 17
30 29 28 28 27 25 23 22 21 22 24 26 26 27 27 24 23 23 23 22 19 19 18 17 16 16 15 15 15 15 14 15 15 15 16 16 16 16 16 17 17 17 17 18
27 28 28 28 27 26 25 23 22 23 24 25 25 25 25 24 24 24 22 21 20 19 18 18 16 16 16 16 16 15 15 15 16 16 16 17 16 16 16 16 16 17 17 18
27 27 27 27 27 26 24 23 23 24 25 25 25 25 25 25 25 24 22 21 20 19 19 19 18 17 17 17 18 17 16 16 16 16 16 17 17 17 17 17 17 18 18 18
26 26 26 27 27 26 25 24 23 25 25 25 25 24 24 24 24 23 22 21 20 20 20 19 19 18 18 19 18 18 17 17 17 17 17 17 17 17 17 17 18 19 19 19
26 26 25 27 28 26 25 25 24 24 23 23 24 24 24 24 23 23 23 22 21 21 21 20 20 20 20 19 19 19 19 18 17 17 17 17 17 18 18 18 19 19 19 19
25 27 28 28 28 26 26 26 24 22 23 22 23 23 23 23 23 23 23 22 21 21 21 21 20 20 20 19 19 19 19 19 19 18 18 18 18 18 18 19 19 19 20 20
24 24 26 28 26 24 24 24 24 23 23 23 23 23 23 23 23 23 23 23 23 22 21 21 21 20 20 20 19 19 19 19 19 19 19 19 19 19 19 20 20 21 22 22
22 24 25 26 25 26 25 23 23 22 23 23 23 23 22 23 23 23 23 23 22 22 22 22 22 21 21 21 21 20 20 20 21 21 21 21 21 22 22 22 22 24 25 25

GEFSCGP_500_meanwind_168.txt.gz
Wind_Speed
27 25 22 20 20 20 20 19 17 14 12 12 12 13 14 15 16 15 14 14 14 13 11 11 10 10 10 9 8 8 9 10 11 11 12 12 12 12 14 14 13 12 10 10
27 23 21 23 23 23 22 20 17 15 14 13 14 14 15 16 16 17 15 14 14 13 12 11 11 10 10 10 9 9 10 10 10 11 12 13 12 13 13 14 14 13 12 11
25 22 24 25 24 23 22 20 18 16 15 16 16 16 17 18 17 17 16 14 13 12 11 11 11 10 10 10 9 9 10 10 10 11 12 12 12 13 14 15 15 15 13 12
27 26 26 26 25 23 21 19 19 18 17 18 19 19 19 19 18 16 15 14 13 12 10 10 10 10 10 10 10 10 10 11 11 12 12 12 12 13 14 15 15 15 15 14
26 26 26 26 24 23 20 19 20 20 20 21 22 22 20 20 18 16 14 13 13 12 11 10 10 10 10 10 10 10 11 12 13 12 13 13 13 14 14 15 15 15 15 14
27 27 27 25 24 22 21 21 23 23 24 24 23 25 23 20 18 16 14 12 11 11 10 10 10 10 10 10 10 11 10 12 12 13 13 13 14 14 14 15 16 16 16 15
28 28 27 27 26 25 24 25 27 26 26 24 23 25 23 20 19 17 15 13 12 10 10 10 9 8 9 10 10 10 10 11 12 13 13 13 14 15 15 16 18 18 17 17
27 27 27 27 26 25 25 26 27 26 24 22 23 24 23 21 20 18 16 14 12 10 10 9 8 9 9 9 9 10 11 12 12 13 14 15 14 14 15 17 18 18 19 18
26 25 25 25 24 24 24 25 25 25 24 23 23 21 20 18 16 16 15 13 11 10 10 9 8 8 9 8 8 9 11 12 12 13 14 15 16 16 16 17 18 19 20 20
25 25 26 24 24 24 24 25 26 26 25 24 22 19 17 16 16 16 14 12 10 10 10 10 8 8 9 9 10 10 10 11 12 13 13 14 15 16 17 18 19 19 20 20
26 26 26 26 27 26 25 26 26 26 26 25 22 18 16 17 16 16 16 15 13 12 11 10 9 8 8 10 10 11 11 12 12 13 14 15 15 16 17 18 20 20 20 20
26 27 27 27 27 26 25 25 26 27 26 26 24 20 18 17 16 15 16 15 15 14 12 11 10 9 9 10 11 12 12 12 12 13 14 15 16 16 17 18 19 19 20 20
28 29 29 29 29 27 27 28 27 26 26 26 25 22 19 18 17 16 15 14 15 14 13 12 12 11 11 11 11 12 12 12 12 12 13 14 16 17 18 18 19 19 20 20
28 29 30 30 28 27 27 28 28 27 26 26 25 24 23 22 20 20 18 16 14 13 13 12 13 13 12 11 11 11 13 13 12 12 13 13 14 16 17 18 19 19 20 20
30 30 30 29 28 28 28 28 27 27 27 26 25 25 25 24 22 21 20 17 16 16 14 14 14 13 13 13 13 13 13 14 13 13 14 14 15 17 18 18 18 19 21 22
32 31 30 31 30 29 28 28 27 27 27 27 26 25 24 23 23 22 21 20 19 17 16 16 16 15 14 14 14 14 14 15 15 15 15 16 17 17 19 20 20 20 21 21
34 32 32 32 31 30 31 29 28 28 29 29 28 26 25 24 22 22 22 22 20 19 17 18 17 16 15 15 15 15 15 16 16 16 17 17 18 18 19 20 21 21 21 21
35 33 32 32 32 33 31 30 30 30 30 29 28 26 25 25 24 24 23 21 19 18 17 17 16 16 16 15 15 14 14 14 15 16 17 18 19 19 20 21 21 22 22 21
36 35 34 32 32 32 31 30 30 30 29 28 27 27 26 27 26 23 21 18 17 18 17 16 16 16 16 16 15 14 15 14 14 16 17 18 18 19 20 21 22 22 22 21
35 34 34 33 32 32 30 29 29 29 31 28 26 24 24 26 25 23 20 19 18 17 17 16 16 16 16 16 16 16 15 15 15 16 17 18 19 20 21 21 22 22 22 22
34 34 34 35 34 32 30 29 28 29 27 27 27 25 24 23 23 21 21 20 19 18 17 17 16 16 16 16 16 16 16 16 16 16 18 19 20 20 21 22 22 23 23 23
34 34 33 32 32 31 31 29 28 27 26 26 26 24 23 22 21 21 21 20 19 18 17 17 17 17 17 16 15 16 17 17 17 17 19 19 20 20 21 21 22 22 23 24
32 33 32 31 31 28 28 29 29 27 25 24 23 22 21 21 20 20 19 20 20 18 18 18 17 18 18 17 16 16 17 17 18 18 18 19 20 20 20 21 21 22 22 23
30 29 30 30 28 27 26 27 28 27 26 25 23 22 22 21 21 20 20 20 19 19 18 18 18 18 18 18 17 17 17 19 20 20 20 21 20 21 21 21 21 21 21 22
27 27 28 27 26 25 25 25 25 25 25 23 21 20 19 19 20 20 20 20 19 19 19 19 18 18 18 18 18 18 18 19 19 19 19 20 22 21 21 21 22 22 22 23
25 26 26 26 25 25 25 24 23 23 22 21 20 20 20 20 19 19 18 19 19 19 19 19 18 18 18 18 17 17 18 18 18 18 18 19 20 21 21 21 21 22 22 22

GEFSCGP_500_meanwind_174.txt.gz
Wind_Speed
31 30 27 25 25 25 24 22 21 21 23 23 22 21 20 18 15 14 13 11 11 11 12 12 10 10 10 10 11 10 10 10 10 11 11 12 13 13 13 14 13 12 12 11
31 28 26 28 28 27 25 23 22 22 24 24 22 21 20 18 16 14 12 11 11 12 12 12 12 11 10 11 11 11 12 12 11 12 12 13 12 13 13 13 13 13 13 12
29 27 28 29 28 27 26 23 23 24 25 25 24 22 21 19 17 15 13 12 11 11 12 12 11 11 11 12 12 13 13 12 12 12 12 12 12 13 13 13 13 14 14 14
31 29 30 29 28 26 25 24 25 26 26 26 25 23 20 19 18 16 14 12 12 11 12 12 12 12 12 13 14 14 14 13 13 12 12 12 12 13 14 14 14 15 15 14
31 30 30 29 27 26 25 27 27 28 28 28 27 24 21 19 17 16 14 13 12 12 12 13 13 12 13 12 12 13 14 14 14 14 14 13 12 14 14 14 15 15 14 14
32 32 31 29 28 28 29 30 30 30 30 30 26 25 22 20 18 16 16 15 13 12 12 12 12 12 12 11 12 13 14 14 15 14 14 14 14 14 14 14 15 15 15 15
33 32 32 32 31 31 32 32 32 31 31 29 26 26 22 20 18 17 17 16 14 13 13 12 11 11 11 11 12 13 14 14 15 15 15 15 16 16 14 15 15 15 16 16
32 32 32 32 31 31 32 32 32 31 30 27 26 25 22 20 19 18 17 16 14 14 13 12 11 11 11 12 11 11 13 14 14 15 16 16 16 16 16 16 16 16 17 18
30 30 31 31 30 31 32 32 31 31 30 28 26 24 21 20 19 19 17 16 15 14 14 14 12 12 11 12 12 12 12 14 14 15 16 17 17 17 17 17 17 18 17 18
30 29 30 31 32 33 33 32 32 32 30 28 26 23 20 18 18 17 16 15 14 14 14 14 13 12 11 12 12 12 13 13 14 15 15 16 17 17 17 18 17 18 19 19
31 31 32 33 34 33 34 34 33 31 30 28 25 22 18 17 17 16 15 15 15 14 14 14 13 13 12 11 11 12 12 12 14 15 16 17 17 18 17 17 17 19 20 20
31 32 33 34 33 33 33 32 32 31 29 27 24 21 19 18 18 17 16 15 15 15 14 14 13 12 12 11 11 12 12 12 13 15 16 17 17 17 17 18 18 18 20 21
31 33 33 34 35 35 34 33 31 30 28 27 25 21 19 18 18 16 15 14 14 14 14 14 13 13 12 12 12 12 13 13 13 14 15 17 17 17 17 18 18 19 19 20
30 32 33 33 33 32 32 31 30 29 28 27 24 20 19 18 17 16 16 15 14 14 14 13 13 13 12 12 13 13 13 13 14 15 16 16 17 17 18 18 19 19 20 20
31 31 31 31 31 31 31 30 29 29 27 25 23 21 19 19 18 18 17 16 15 15 15 15 15 15 14 13 13 13 13 13 14 15 16 17 17 18 18 19 19 20 20 20
32 31 30 31 31 31 30 30 29 28 26 24 23 20 19 19 18 18 19 18 17 16 16 16 16 15 15 14 15 14 14 14 15 15 16 17 17 18 18 18 20 21 21 20
33 31 31 31 31 31 31 29 29 28 26 24 23 20 19 19 18 18 18 18 17 16 16 16 17 16 16 16 16 16 16 16 16 16 16 18 18 19 20 20 19 19 19 19
33 32 32 31 32 34 31 29 29 28 26 25 23 21 20 19 18 18 18 18 18 17 17 17 16 17 17 17 17 17 17 17 17 17 18 18 19 20 20 20 19 19 20 20
32 31 31 31 32 33 31 29 27 27 26 25 23 21 20 20 19 18 18 18 18 19 18 17 17 17 17 17 17 17 17 17 17 18 18 18 18 19 20 20 20 20 20 21
32 31 31 31 32 32 30 28 27 26 26 24 23 21 21 22 21 20 20 19 18 18 19 18 18 18 18 18 17 17 17 18 18 18 18 18 18 19 20 21 21 21 21 21
33 32 32 32 31 31 29 28 26 26 24 23 23 22 22 22 21 21 21 20 19 19 19 19 19 19 18 18 18 17 17 18 18 18 18 18 19 20 21 22 22 22 23 23
34 33 33 32 32 31 29 28 26 25 23 23 23 23 22 22 21 20 20 20 20 20 20 20 19 19 18 18 18 18 18 19 18 18 18 19 19 20 21 21 22 23 23 24
35 34 32 32 31 29 28 28 27 26 25 24 23 23 22 22 22 21 20 20 21 20 20 21 21 20 19 18 18 18 18 19 19 19 19 20 20 20 20 21 22 22 23 24
33 33 32 31 31 30 28 27 27 27 26 25 24 23 23 23 22 22 22 21 21 21 21 21 21 21 20 19 19 18 18 18 18 18 19 20 21 21 22 22 22 22 23 24
31 31 31 30 29 28 28 27 26 25 25 25 24 23 23 23 22 22 22 21 21 20 21 21 20 20 20 19 19 19 18 18 18 19 19 20 22 21 22 22 22 23 23 22
28 29 30 29 28 27 27 27 26 25 24 24 23 22 22 23 22 21 21 21 20 19 20 20 20 20 20 20 20 19 19 18 18 18 19 19 20 21 22 23 23 24 24 24

GEFSCGP_500_meanwind_180.txt.gz
Wind_Speed
31 30 28 26 26 26 25 24 23 24 22 19 18 18 17 16 15 14 13 13 13 13 13 11 10 10 9 8 10 10 10 10 10 10 10 11 13 13 12 13 13 12 12 13
31 30 28 28 28 27 25 25 25 25 23 21 20 19 18 17 16 15 15 14 14 14 15 13 11 10 10 10 11 12 11 11 11 11 11 11 12 13 12 12 13 13 13 12
31 30 30 29 29 27 26 26 26 26 24 22 21 20 19 18 17 16 16 15 15 15 16 14 12 11 11 10 10 12 13 12 13 12 12 12 13 13 13 13 13 14 13 13
33 32 31 31 29 28 26 27 28 27 24 24 22 20 20 18 18 17 16 16 15 15 16 15 13 12 11 12 12 12 13 14 14 14 13 13 14 14 14 14 14 15 14 14
33 32 31 31 29 28 28 28 28 27 26 25 23 21 20 19 18 17 16 16 16 16 16 16 14 14 13 12 13 13 13 14 13 14 14 14 14 15 15 15 15 15 15 14
34 33 32 31 31 31 30 29 29 28 27 27 24 22 21 19 17 17 16 16 16 16 16 16 15 15 14 13 13 13 14 15 14 14 15 14 15 15 15 15 15 15 15 15
35 34 33 32 32 32 31 30 29 29 28 26 24 23 21 19 17 17 17 16 16 15 15 16 16 16 15 13 13 13 14 15 15 15 15 15 16 15 16 16 16 16 16 16
33 34 33 33 32 32 31 30 29 27 25 25 25 23 21 18 18 18 17 17 17 15 15 16 16 15 14 13 13 13 13 13 13 15 15 14 16 16 16 17 16 16 16 16
32 33 33 32 32 32 32 31 30 28 26 24 24 22 20 18 17 17 17 17 17 16 15 15 15 15 14 14 13 13 13 13 13 13 15 15 15 16 17 18 18 17 16 17
32 32 33 33 34 34 32 31 32 30 27 23 23 22 19 17 16 16 16 16 16 16 16 15 15 14 14 14 14 14 13 13 13 14 15 15 16 16 17 18 19 18 17 18
31 31 33 34 34 33 33 33 33 30 28 22 20 20 19 18 17 16 16 16 16 15 15 15 15 15 14 14 14 14 14 14 14 14 15 16 16 16 17 17 18 18 17 18
30 30 31 32 33 33 32 32 31 30 28 25 20 19 20 18 17 17 17 16 16 15 15 15 15 15 15 14 14 13 13 14 14 15 16 16 16 17 17 17 18 18 18 18
30 31 31 32 33 34 34 33 32 30 28 25 22 19 20 18 18 18 17 17 16 16 15 15 15 15 15 14 14 13 13 14 14 14 15 16 16 17 18 18 18 18 18 19
30 31 31 28 28 31 33 33 32 31 29 26 23 20 20 18 18 18 18 17 17 16 15 15 15 15 15 15 14 13 14 14 14 15 16 17 17 18 19 19 19 19 19 19
30 30 30 30 29 29 30 31 31 31 28 25 23 22 21 19 18 18 18 17 17 16 15 15 15 16 16 16 15 14 14 14 14 15 15 16 17 17 18 19 20 20 20 20
30 30 29 29 29 29 29 29 30 29 28 26 23 22 21 21 19 19 19 18 17 16 16 16 15 16 17 16 15 15 15 15 15 15 15 16 17 18 19 19 20 21 21 21
30 29 29 28 28 29 30 29 28 28 27 26 25 23 22 21 20 20 19 19 18 17 17 16 16 15 16 16 16 16 16 16 16 16 16 17 17 18 19 20 20 20 20 21
32 30 29 28 28 29 28 28 27 27 26 26 25 24 23 22 21 21 20 19 19 18 18 18 17 16 16 16 16 17 17 17 17 17 17 18 18 18 19 19 19 20 20 20
32 32 30 29 28 28 29 28 28 27 26 26 25 23 23 23 23 22 21 21 20 19 19 19 19 18 18 17 17 17 17 17 18 18 19 19 19 19 19 19 19 20 21 21
32 32 31 30 28 27 28 27 26 25 25 25 24 24 23 23 23 22 22 22 20 20 20 19 19 19 19 18 18 18 17 18 18 19 19 19 19 20 20 20 20 21 21 22
32 33 32 30 29 28 27 25 26 27 26 24 23 23 23 23 23 23 23 22 22 21 21 20 19 19 19 19 19 19 19 18 18 19 19 19 19 19 20 20 21 21 22 22
31 32 32 32 31 29 27 26 27 26 25 24 23 22 23 23 23 23 23 22 22 22 21 21 20 19 19 19 19 19 19 19 18 19 19 19 18 18 19 19 19 20 20 21
31 32 32 32 31 28 26 26 25 25 24 24 23 23 23 23 23 23 23 22 22 22 22 21 21 21 20 19 19 19 19 19 19 19 19 19 18 18 18 18 19 20 21 21
30 30 30 30 29 26 26 26 25 25 24 24 23 23 23 23 23 23 22 21 21 22 22 21 21 21 20 20 20 20 19 19 19 19 19 19 18 18 19 19 19 20 20 21
30 30 30 29 28 27 26 26 26 25 24 24 24 24 23 23 23 23 22 21 21 22 22 22 21 21 21 21 21 21 20 20 20 19 19 19 19 19 19 19 20 20 21 22
29 30 31 31 29 27 26 26 25 25 25 25 25 24 24 24 23 23 22 21 21 21 21 21 21 21 21 21 21 21 20 20 20 19 19 20 20 20 20 20 21 21 22 22

GEFSCGP_500_meanwind_186.txt.gz
Wind_Speed
30 30 29 27 25 22 20 17 16 15 17 21 18 16 15 18 19 18 18 17 14 12 12 11 11 11 12 11 10 10 10 10 10 9 9 9 10 11 11 10 11 11 11 10
31 30 27 26 26 25 24 22 19 17 20 24 21 18 17 19 21 21 19 17 16 14 13 12 12 12 12 12 12 11 11 11 11 10 10 10 10 11 11 10 11 11 11 11
30 27 28 29 28 27 26 25 22 20 20 24 23 20 19 20 20 21 20 18 18 16 14 13 12 12 12 13 13 12 12 12 11 11 12 12 12 11 11 11 11 11 11 11
30 29 29 30 29 28 28 25 24 23 22 23 22 20 19 20 20 20 19 18 18 17 15 14 14 14 13 13 14 14 13 13 12 12 12 12 12 12 11 11 11 11 12 12
31 30 31 31 29 29 27 25 26 25 25 25 22 21 18 21 22 19 18 18 18 18 16 15 15 14 14 14 14 14 14 14 13 13 13 12 12 12 12 12 12 12 12 12
30 30 31 30 29 29 28 27 27 26 26 27 24 22 20 21 22 20 18 18 18 18 17 16 16 15 15 15 15 15 14 14 14 13 13 13 13 13 12 13 13 12 12 13
30 30 31 31 30 30 30 29 27 27 27 26 22 23 21 19 21 20 18 18 19 19 18 16 16 15 15 15 14 14 14 14 14 13 13 14 14 14 13 13 13 13 13 13
28 29 29 31 30 30 30 29 27 24 21 21 20 22 20 21 20 20 20 20 20 20 19 17 16 15 15 14 14 13 14 14 14 14 14 14 13 13 14 13 13 14 14 14
24 25 27 29 29 29 29 30 26 22 19 17 19 20 20 23 23 23 22 20 20 19 19 17 16 16 15 15 15 14 14 14 14 14 14 14 13 13 13 13 13 14 15 15
23 20 23 26 28 29 29 28 28 28 23 19 17 19 21 23 23 22 21 19 19 19 19 18 17 16 16 16 15 15 15 14 14 14 14 14 13 12 12 13 13 13 14 15
27 23 21 25 29 28 29 30 29 28 25 21 18 18 20 23 22 21 20 19 19 18 18 18 17 16 16 16 15 15 15 15 15 14 14 14 13 13 13 13 13 14 14 14
29 26 24 25 25 26 28 29 29 30 29 26 21 17 18 19 20 20 20 20 20 19 18 18 18 17 16 16 15 15 15 15 15 14 14 14 14 14 14 14 15 15 15 16
31 29 27 25 25 27 29 29 30 30 29 27 23 20 19 18 19 19 19 21 21 19 18 19 19 17 16 16 15 15 15 15 14 14 14 14 14 14 14 15 15 15 15 16
32 33 31 26 24 24 27 28 30 30 30 27 25 22 22 19 20 20 20 21 21 20 19 20 19 17 16 15 15 15 14 14 15 15 14 14 13 14 14 15 15 15 15 16
33 34 33 29 26 24 24 26 29 32 30 27 24 23 22 19 20 22 22 21 20 19 20 19 17 16 15 15 15 14 14 15 15 15 14 13 13 14 14 15 15 16 16 16
34 34 34 32 28 25 25 25 27 30 30 29 26 23 22 20 22 23 23 21 21 20 19 18 16 16 15 15 15 15 15 15 15 15 14 14 15 15 15 16 16 17 17 17
33 34 34 33 28 25 27 25 24 26 29 30 30 28 26 25 24 23 23 22 20 20 19 18 16 16 17 16 16 16 16 16 16 16 16 16 16 17 17 17 18 18 19 19
33 34 34 32 30 30 27 25 25 26 29 30 29 31 30 29 27 26 25 22 21 20 19 18 17 17 17 17 16 17 17 17 16 16 16 17 17 17 17 17 18 19 19 19
32 33 34 33 31 29 28 29 29 29 30 31 30 31 31 30 31 28 26 25 22 22 20 20 19 18 18 18 18 18 18 18 17 17 17 17 17 18 17 17 18 19 19 19
33 33 34 34 32 29 28 27 26 27 29 29 31 32 31 28 27 26 25 24 22 21 21 20 20 20 19 19 19 19 19 18 18 18 18 19 19 19 18 18 18 18 19 19
34 34 35 34 32 29 29 29 27 29 29 29 32 33 32 30 28 26 24 23 22 21 21 21 21 20 19 19 19 19 19 19 18 19 19 20 19 19 19 19 19 20 20 20
32 34 33 34 33 31 30 29 30 31 30 30 30 31 32 31 29 27 26 24 23 22 22 21 20 20 20 20 19 19 19 19 19 19 20 20 19 19 20 20 20 21 21 21
32 32 32 34 33 32 31 31 32 31 29 30 30 30 28 29 28 28 26 25 24 23 22 22 21 20 20 20 20 20 20 20 20 20 20 19 19 20 20 20 20 21 21 21
31 33 33 34 34 33 30 31 30 30 30 29 30 29 27 27 27 26 26 25 25 24 23 22 22 21 20 20 20 20 21 21 21 20 20 20 20 20 20 20 21 21 21 21
30 31 33 33 33 32 29 29 27 28 30 30 29 29 27 28 28 27 26 25 25 24 23 23 22 22 22 21 21 21 22 21 21 21 20 21 21 21 21 22 22 22 22 21
29 31 32 32 32 31 29 29 27 27 28 27 27 27 27 26 26 26 26 25 25 24 23 23 22 22 22 22 22 22 22 22 22 22 22 22 22 21 21 22 22 22 21 22